AirNav   Bose Proflight aviation headeet
 
 359 users online  

GA18 Big Creek Flying Ranch Airport
Clayton, Georgia, USA

GOING TO CLAYTON?


FAA INFORMATION EFFECTIVE 03 JANUARY 2019

Location

FAA Identifier: GA18
Lat/Long: 34-49-58.3340N / 083-24-34.5830W
34-49.972233N / 083-24.576383W
34.8328706 / -83.4096064
(estimated)
Elevation: 1650 ft. / 503 m (estimated)
Variation: 03W (1985)
From city: 4 miles SE of CLAYTON, GA
Time zone: UTC -5 (UTC -4 during Daylight Saving Time)
Zip code: 30525

Airport Operations

Airport use: Private use. Permission required prior to landing
Activation date: 11/1988
Control tower: no
ARTCC: ATLANTA CENTER
FSS: MACON FLIGHT SERVICE STATION
1-WX-BRIEF
Attendance: UNATNDD
Wind indicator: yes
Segmented circle: no

Airport Communications

WX AWOS-3 at TOC (15 nm S): 119.625 (706-297-7473)

Nearby radio navigation aids

VOR radial/distance  VOR name  Freq  Var
ODFr326/9.9FOOTHILLS VORTAC113.4000E
HRSr105/25.8HARRIS VORTAC109.8000E
ELWr309/39.6ELECTRIC CITY VORTAC108.6000E

 
NDB name  Hdg/Dist  Freq  Var  ID
LAKE KEOWEE276/34.840804WLQK .-.. --.- -.-

Airport Services

Runway Information

Runway 9/27

Dimensions: 2800 x 60 ft. / 853 x 18 m
Surface: turf
RUNWAY 9  RUNWAY 27
Traffic pattern: leftleft
Displaced threshold: 100 ft.no
Obstructions: 5 ft. fence40 ft. pline, marked, 600 ft. from runway

Airport Ownership and Management from official FAA records

Ownership: Privately-owned
Owner: DELTA BRANO ENTERPRISES INC
34 BLOWING WIND LANE
CLAYTON, GA 30525
Phone 770-596-3689
Manager: DANNY BENSON
34 BLOWING WIND LANE
CLAYTON, GA 30525
Phone 770-596-3689

Airport Operational Statistics

Aircraft based on the field: 1
Single engine airplanes: 1
    

Additional Remarks

RWY 27 FOR LDG ONLY;RWY 09 FOR DEP ONLY-STRAIGHT OUT AND DOWN THE VALLEY

Instrument Procedures

There are no published instrument procedures at GA18.

Some nearby airports with instrument procedures:

KTOC - Toccoa Airport-RG Letourneau Field (15 nm S)
KAJR - Habersham County Airport (21 nm S)
1A5 - Macon County Airport (23 nm N)
KCEU - Oconee County Regional Airport (28 nm E)
KDZJ - Blairsville Airport (29 nm W)
 
Loc | Ops | Rwys | IFR | FBO | Links
Com | Nav | Svcs | Stats | Notes
Area around GA18 (Big Creek Flying Ranch Airport)
 
Road maps at: MapQuest Bing Google
 
Aerial photo
No photo
 
Sectional chart

 
Airport distance calculator
Flying to Big Creek Flying Ranch Airport? Find the distance to fly.

From to GA18

Sunrise and sunset
Times for 21-Jan-2019
 Local
(UTC-5)
 Zulu
(UTC)
Morning civil twilight07:1312:13
Sunrise07:4012:40
Sunset17:5022:50
Evening civil twilight18:1723:17

Current date and time
Zulu (UTC)  21-Jan-2019 10:49:11
Local (UTC-5)  21-Jan-2019 05:49:11
 
METAR
KTOC 
15nm S 
211035Z AUTO 00000KT 10SM CLR M03/M12 A3021 RMK AO2 T10321119
KAJR 
21nm S 
211035Z AUTO 00000KT 10SM CLR M06/M12 A3019 RMK AO2 T10611119
K1A5 
23nm N 
211025Z AUTO 02003KT 10SM CLR M08/M14 A3021 RMK AO2 T10801141
KCEU 
28nm E 
210954Z AUTO 11005KT 10SM CLR M03/M13 A3021 RMK AO2 SLP233 T10331128 $
KDZJ 
29nm W 
211035Z AUTO 29003KT 10SM CLR M10/M15 A3021 RMK AO2 T10981154
KRHP 
30nm NW 
211020Z AUTO 08011KT 10SM CLR M09/M15 A3022 RMK AO2 T10871154
K24A 
31nm N 
211020Z AUTO 30007KT 10SM CLR M11/M18 A3012 RMK AO2 T11051176
TAF
KAND 
40nm SE 
210530Z 2106/2206 27006KT P6SM FEW250 FM210900 03005KT P6SM FEW250 FM211900 10003KT P6SM SKC
NOTAMs
Click for the latest NOTAMs
NOTAMs are issued by the DoD/FAA and will open in a separate window not controlled by AirNav.

 

 
 

Would you like to see your business listed on this page?

 If your business provides an interesting product or service to pilots, flight crews, aircraft, or users of the Big Creek Flying Ranch Airport, you should consider listing it here.  To start the listing process, click on the button below
 
Add a business
 

Other Pages about Big Creek Flying Ranch Airport

Update a link
 
Copyright © AirNav, LLC. All rights reserved. Privacy Policy  Contact